Weather History for Alamosa, CO

Change the Weather History Date:

Sunday, August 10, 2014

  Actual Average Record
Temperature  
Mean Temperature 64 °F 64 °F  
Max Temperature 81 °F 80 °F 89 °F (2003)
Min Temperature 46 °F 47 °F 32 °F (2009)
Degree Days  
Heating Degree Days 1 2  
Month to date heating degree days 26 17  
Since 1 June heating degree days 174 230  
Since 1 July heating degree days 48 62  
Cooling Degree Days 0 1  
Month to date cooling degree days 0 10  
Year to date cooling degree days 57 48  
Since 1 June cooling degree days 57 48  
Growing Degree Days 14 (Base 50)    
Moisture  
Dew Point 42 °F    
Average Humidity 50    
Maximum Humidity 77    
Minimum Humidity 22    
Precipitation  
Precipitation T in 0.04 in 0.91 in (1979)
Month to date precipitation T 0.40  
Year to date precipitation 3.35 4.08  
Snow  
Snow 0.00 in 0.00 in 0.00 in (2002)
Month to date snowfall 0.0 0.0  
Since 1 June snowfall 0.0 0.0  
Since 1 July snowfall 0.0 0.0  
Snow Depth 0.00 in    
Sea Level Pressure  
Sea Level Pressure 30.20 in    
Wind  
Wind Speed 9 mph (NE)    
Max Wind Speed 28 mph    
Max Gust Speed 38 mph    
Visibility 10 miles    
Events Rain    
T = Trace of Precipitation, MM = Missing Value Source: NWS Daily Summary

Daily Weather History Graph

Daily Weather History Graph

Search for Another Location

Airport:

Trip Planner

Search our weather history database for the weather conditions in past years. The results will help you decide how hot, cold, wet, or windy it might be!

Date:

Astronomy

Aug. 10, 2014 Rise Set
Actual Time 6:15 AM MDT 8:01 PM MDT
Civil Twilight 5:47 AM MDT 8:29 PM MDT
Nautical Twilight 5:12 AM MDT 9:03 PM MDT
Astronomical Twilight 4:36 AM MDT 9:39 PM MDT
Moon 7:52 PM MDT (8/10) 6:09 AM MDT (8/10)
Length of Visible Light 14h 42m
Length of Day
13h 46m
Full, 100% of the Moon is Illuminated
Aug 10
Full
Aug 10
Full
Aug 17
Last Quarter
Aug 25
New
Sep 2
First Quarter

Hourly Weather History & Observations

Time (MDT) Temp. Dew Point Humidity Pressure Visibility Wind Dir Wind Speed Gust Speed Precip Events Conditions
12:08 AM 63.0 °F 41.0 °F 45% 30.37 in 10.0 mi East 17.3 mph 24.2 mph N/A   Clear
12:52 AM 62.1 °F 41.0 °F 46% 30.06 in 10.0 mi East 16.1 mph - N/A   Clear
1:52 AM 60.1 °F 41.0 °F 49% 30.06 in 10.0 mi ENE 12.7 mph - N/A   Mostly Cloudy
2:52 AM 55.9 °F 41.0 °F 57% 30.08 in 10.0 mi NNE 3.5 mph - N/A   Clear
3:52 AM 51.1 °F 39.9 °F 66% 30.10 in 10.0 mi SSW 3.5 mph - N/A   Clear
4:52 AM 50.0 °F 39.9 °F 68% 30.10 in 10.0 mi WNW 4.6 mph - N/A   Clear
5:52 AM 48.9 °F 39.9 °F 71% 30.12 in 10.0 mi West 4.6 mph - N/A   Clear
6:52 AM 48.9 °F 41.0 °F 74% 30.14 in 10.0 mi NE 3.5 mph - N/A   Clear
7:52 AM 55.4 °F 41.0 °F 58% 30.43 in 10.0 mi North 9.2 mph - N/A   Clear
8:52 AM 61.0 °F 42.1 °F 50% 30.17 in 10.0 mi WNW 4.6 mph - N/A   Clear
9:52 AM 66.0 °F 39.9 °F 38% 30.16 in 10.0 mi Calm Calm - N/A   Clear
10:52 AM 71.1 °F 42.1 °F 35% 30.17 in 10.0 mi NE 3.5 mph - N/A   Clear
11:52 AM 73.9 °F 41.0 °F 30% 30.13 in 10.0 mi Variable 4.6 mph - N/A   Clear
12:52 PM 77.0 °F 41.0 °F 28% 30.09 in 10.0 mi Variable 5.8 mph - N/A   Clear
1:52 PM 77.0 °F 37.4 °F 24% 30.39 in 10.0 mi Variable 4.6 mph - N/A   Clear
2:52 PM 77.0 °F 39.9 °F 26% 30.09 in 10.0 mi WSW 11.5 mph - N/A   Clear
3:52 PM 77.0 °F 35.1 °F 22% 30.10 in 10.0 mi West 16.1 mph - N/A   Clear
4:52 PM 73.0 °F 37.9 °F 28% 30.13 in 10.0 mi WNW 21.9 mph 33.4 mph N/A   Clear
5:52 PM 71.6 °F 42.8 °F 35% 30.37 in 10.0 mi ESE 18.4 mph 27.6 mph N/A   Mostly Cloudy
6:09 PM 69.1 °F 46.9 °F 45% 30.38 in 10.0 mi ESE 15.0 mph - N/A   Scattered Clouds
6:52 PM 69.1 °F 45.0 °F 42% 30.15 in 10.0 mi ESE 15.0 mph - N/A   Partly Cloudy
7:52 PM 63.0 °F 46.0 °F 54% 30.17 in 10.0 mi East 23.0 mph 32.2 mph N/A   Clear
8:52 PM 60.1 °F 46.0 °F 60% 30.19 in 10.0 mi East 20.7 mph 28.8 mph N/A   Mostly Cloudy
9:19 PM 61.0 °F 45.0 °F 56% 30.49 in 10.0 mi ENE 12.7 mph 25.3 mph N/A   Overcast
9:52 PM 59.0 °F 44.6 °F 59% 30.48 in 10.0 mi East 6.9 mph - N/A Rain Light Rain
10:52 PM 57.0 °F 44.1 °F 62% 30.23 in 10.0 mi West 8.1 mph - 0.00 in   Partly Cloudy
11:52 PM 54.0 °F 45.0 °F 72% 30.24 in 10.0 mi NW 4.6 mph - N/A   Clear